TimeEDT,TemperatureF,Dew PointF,Humidity,Sea Level PressureIn,VisibilityMPH,Wind Direction,Wind SpeedMPH,Gust SpeedMPH,PrecipitationIn,Events,Conditions,WindDirDegrees,DateUTC
12:53 AM,44.1,42.1,93,30.18,10.0,Calm,Calm,-,N/A,,Mostly Cloudy,0,2012-09-28 04:53:00
1:53 AM,46.9,42.1,83,30.17,10.0,Calm,Calm,-,N/A,,Overcast,0,2012-09-28 05:53:00
2:53 AM,48.9,43.0,80,30.16,10.0,Calm,Calm,-,N/A,,Overcast,0,2012-09-28 06:53:00
3:53 AM,48.9,43.0,80,30.16,10.0,Calm,Calm,-,N/A,,Overcast,0,2012-09-28 07:53:00
4:53 AM,50.0,44.1,80,30.16,10.0,Calm,Calm,-,N/A,,Overcast,0,2012-09-28 08:53:00
5:53 AM,50.0,45.0,83,30.16,10.0,Calm,Calm,-,N/A,,Overcast,0,2012-09-28 09:53:00
6:53 AM,50.0,45.0,83,30.14,10.0,Calm,Calm,-,N/A,,Overcast,0,2012-09-28 10:53:00
7:53 AM,46.0,44.1,93,30.16,10.0,Calm,Calm,-,N/A,,Mostly Cloudy,0,2012-09-28 11:53:00
8:07 AM,46.4,44.6,93,30.16,10.0,Calm,Calm,-,N/A,,Scattered Clouds,0,2012-09-28 12:07:00
8:53 AM,53.1,48.0,83,30.16,10.0,Calm,Calm,-,N/A,,Clear,0,2012-09-28 12:53:00
9:53 AM,59.0,46.9,64,30.17,10.0,Calm,Calm,-,N/A,,Clear,0,2012-09-28 13:53:00
10:53 AM,62.1,42.1,48,30.18,10.0,Calm,Calm,-,N/A,,Overcast,0,2012-09-28 14:53:00
11:53 AM,64.0,41.0,43,30.18,10.0,Calm,Calm,-,N/A,,Overcast,0,2012-09-28 15:53:00
12:53 PM,66.0,42.1,42,30.17,10.0,WNW,3.5,-,N/A,,Clear,290,2012-09-28 16:53:00
1:53 PM,68.0,42.1,39,30.14,10.0,East,3.5,-,N/A,,Clear,80,2012-09-28 17:53:00
2:53 PM,66.9,41.0,39,30.12,10.0,North,3.5,-,N/A,,Partly Cloudy,350,2012-09-28 18:53:00
3:53 PM,69.1,42.1,38,30.11,10.0,NNW,5.8,-,N/A,,Scattered Clouds,330,2012-09-28 19:53:00
4:53 PM,69.1,42.1,38,30.09,10.0,Calm,Calm,-,N/A,,Scattered Clouds,0,2012-09-28 20:53:00
5:53 PM,68.0,43.0,40,30.07,10.0,NE,3.5,-,N/A,,Partly Cloudy,50,2012-09-28 21:53:00
6:53 PM,64.9,43.0,45,30.09,10.0,NW,3.5,-,N/A,,Scattered Clouds,310,2012-09-28 22:53:00
7:53 PM,55.0,45.0,69,30.09,10.0,Calm,Calm,-,N/A,,Scattered Clouds,0,2012-09-28 23:53:00
8:53 PM,55.0,45.0,69,30.09,10.0,Calm,Calm,-,N/A,,Mostly Cloudy,0,2012-09-29 00:53:00
9:53 PM,50.0,46.0,86,30.09,10.0,Calm,Calm,-,N/A,,Mostly Cloudy,0,2012-09-29 01:53:00
10:53 PM,46.9,44.1,90,30.09,10.0,Calm,Calm,-,N/A,,Mostly Cloudy,0,2012-09-29 02:53:00
11:53 PM,46.0,44.1,93,30.10,10.0,Calm,Calm,-,N/A,,Clear,0,2012-09-29 03:53:00